Back to catalog

STARLINK-36919

AliveCommunicationsVLEO
NORAD 68053·PAYLOAD·🇺🇸 United States

Launched Mar 2, 2026 from Vandenberg Space Force Base

Loading…

Next Passes (next 24 hours)

TLE

FreshSource: CelesTrak SupGP

Epoch: Sep 14, 2026, 15:35 UTC

1 68053C 26041P   26257.64979167 -.00033051  00000+0 -97675-3 0  2573
2 68053  53.1571 249.1240 0001203  86.8549 206.7304 15.34399208    11

Track STARLINK-36919 in real time with AllMySat

Download on the App Store